Time,TemperatureF,DewpointF,PressureIn,WindDirection,WindDirectionDegrees,WindSpeedMPH,WindSpeedGustMPH,Humidity,HourlyPrecipIn,Conditions,Clouds,dailyrainin,SoftwareType,DateUTC
2013-11-07 00:01:00,55.2,50.5,30.02,East,89,0.0,0.0,84,0.00,,---,0.00,VWS V14.01,2013-11-07 05:01:00,
2013-11-07 00:02:00,55.3,50.6,30.02,SSE,159,0.0,3.0,84,0.00,,---,0.00,VWS V14.01,2013-11-07 05:02:00,
2013-11-07 00:03:00,55.3,50.6,30.02,NE,47,1.0,3.0,84,0.00,,---,0.00,VWS V14.01,2013-11-07 05:03:00,
2013-11-07 00:06:00,55.5,50.8,30.02,ESE,107,0.0,0.0,84,0.00,,---,0.00,VWS V14.01,2013-11-07 05:06:00,
2013-11-07 00:11:00,55.7,50.6,30.01,South,179,0.0,2.0,83,0.00,,---,0.00,VWS V14.01,2013-11-07 05:11:00,
2013-11-07 00:16:00,55.8,50.7,30.01,ESE,105,0.0,0.0,83,0.00,,---,0.00,VWS V14.01,2013-11-07 05:16:00,
2013-11-07 00:21:00,55.9,50.8,30.01,North,358,0.0,3.0,83,0.00,,---,0.00,VWS V14.01,2013-11-07 05:21:00,
2013-11-07 00:26:00,55.9,50.8,30.01,NE,45,0.0,1.0,83,0.00,,---,0.00,VWS V14.01,2013-11-07 05:26:00,
2013-11-07 00:32:00,56.0,50.6,30.01,SE,136,0.0,3.0,82,0.00,,---,0.00,VWS V14.01,2013-11-07 05:32:00,
2013-11-07 00:37:00,55.9,50.5,30.00,East,84,0.0,0.0,82,0.00,,---,0.00,VWS V14.01,2013-11-07 05:37:00,
2013-11-07 00:42:00,55.7,50.6,30.00,SSE,167,0.0,0.0,83,0.00,,---,0.00,VWS V14.01,2013-11-07 05:42:00,
2013-11-07 00:47:00,55.7,50.6,30.00,SSE,163,0.0,0.0,83,0.00,,---,0.00,VWS V14.01,2013-11-07 05:47:00,
2013-11-07 00:52:00,55.6,50.5,30.00,ENE,74,0.0,0.0,83,0.00,,---,0.00,VWS V14.01,2013-11-07 05:52:00,
2013-11-07 00:57:00,55.7,50.6,30.00,SE,136,0.0,1.0,83,0.00,,---,0.00,VWS V14.01,2013-11-07 05:57:00,
2013-11-07 01:02:00,55.8,50.7,29.99,East,92,0.0,0.0,83,0.00,,---,0.00,VWS V14.01,2013-11-07 06:02:00,
2013-11-07 01:07:00,55.8,50.7,29.99,NE,39,0.0,0.0,83,0.00,,---,0.00,VWS V14.01,2013-11-07 06:07:00,
2013-11-07 01:12:00,55.8,50.7,29.99,ENE,76,0.0,1.0,83,0.00,,---,0.00,VWS V14.01,2013-11-07 06:12:00,
2013-11-07 01:17:00,55.9,50.8,29.98,East,101,0.0,1.0,83,0.00,,---,0.00,VWS V14.01,2013-11-07 06:17:00,
2013-11-07 01:22:00,55.9,50.8,29.99,East,95,0.0,0.0,83,0.00,,---,0.00,VWS V14.01,2013-11-07 06:22:00,
2013-11-07 01:28:00,55.9,50.8,29.98,East,96,0.0,0.0,83,0.00,,---,0.00,VWS V14.01,2013-11-07 06:28:00,
2013-11-07 01:33:00,55.6,50.5,29.98,ESE,113,0.0,0.0,83,0.00,,---,0.00,VWS V14.01,2013-11-07 06:33:00,
2013-11-07 01:38:00,55.3,50.6,29.97,ESE,115,0.0,0.0,84,0.00,,---,0.00,VWS V14.01,2013-11-07 06:38:00,
2013-11-07 01:43:00,55.1,50.4,29.97,ENE,59,0.0,0.0,84,0.00,,---,0.00,VWS V14.01,2013-11-07 06:43:00,
2013-11-07 01:48:00,55.1,50.7,29.97,ESE,103,0.0,0.0,85,0.00,,---,0.00,VWS V14.01,2013-11-07 06:48:00,
2013-11-07 01:53:00,55.2,50.8,29.97,ESE,119,0.0,0.0,85,0.00,,---,0.00,VWS V14.01,2013-11-07 06:53:00,
2013-11-07 01:58:00,55.3,50.6,29.97,SE,124,0.0,0.0,84,0.00,,---,0.00,VWS V14.01,2013-11-07 06:58:00,
2013-11-07 02:03:00,55.4,50.7,29.97,ENE,75,1.0,2.0,84,0.00,,---,0.00,VWS V14.01,2013-11-07 07:03:00,
2013-11-07 02:08:00,55.5,50.8,29.97,East,91,0.0,0.0,84,0.00,,---,0.00,VWS V14.01,2013-11-07 07:08:00,
2013-11-07 02:13:00,55.5,50.8,29.96,ESE,117,0.0,0.0,84,0.00,,---,0.00,VWS V14.01,2013-11-07 07:13:00,
2013-11-07 02:18:00,55.5,50.8,29.96,ESE,106,0.0,0.0,84,0.00,,---,0.00,VWS V14.01,2013-11-07 07:18:00,
2013-11-07 02:23:00,55.5,50.8,29.95,ESE,109,0.0,0.0,84,0.00,,---,0.00,VWS V14.01,2013-11-07 07:23:00,
2013-11-07 02:29:00,55.3,50.6,29.95,ESE,120,0.0,0.0,84,0.00,,---,0.00,VWS V14.01,2013-11-07 07:29:00,
2013-11-07 02:34:00,55.3,50.6,29.95,East,97,0.0,0.0,84,0.00,,---,0.00,VWS V14.01,2013-11-07 07:34:00,
2013-11-07 02:39:00,55.1,50.4,29.95,SSE,152,0.0,0.0,84,0.00,,---,0.00,VWS V14.01,2013-11-07 07:39:00,
2013-11-07 02:44:00,54.8,50.4,29.94,SE,129,0.0,0.0,85,0.00,,---,0.00,VWS V14.01,2013-11-07 07:44:00,
2013-11-07 02:49:00,54.7,50.3,29.94,SE,140,0.0,0.0,85,0.00,,---,0.00,VWS V14.01,2013-11-07 07:49:00,
2013-11-07 02:54:00,54.7,50.6,29.94,ESE,107,0.0,0.0,86,0.00,,---,0.00,VWS V14.01,2013-11-07 07:54:00,
2013-11-07 02:59:00,54.6,50.5,29.93,ESE,112,0.0,0.0,86,0.00,,---,0.00,VWS V14.01,2013-11-07 07:59:00,
2013-11-07 03:04:00,54.5,50.4,29.93,ESE,107,0.0,0.0,86,0.00,,---,0.00,VWS V14.01,2013-11-07 08:04:00,
2013-11-07 03:09:00,54.5,50.4,29.93,SE,129,0.0,0.0,86,0.00,,---,0.00,VWS V14.01,2013-11-07 08:09:00,
2013-11-07 03:14:00,54.5,50.4,29.92,SE,129,0.0,0.0,86,0.00,,---,0.00,VWS V14.01,2013-11-07 08:14:00,
2013-11-07 03:19:00,54.6,50.5,29.92,ESE,103,0.0,0.0,86,0.00,,---,0.00,VWS V14.01,2013-11-07 08:19:00,
2013-11-07 03:24:00,54.7,50.6,29.92,ESE,118,0.0,0.0,86,0.00,,---,0.00,VWS V14.01,2013-11-07 08:24:00,
2013-11-07 03:29:00,54.9,50.8,29.92,ESE,119,0.0,0.0,86,0.00,,---,0.00,VWS V14.01,2013-11-07 08:29:00,
2013-11-07 03:34:00,55.0,50.6,29.91,SE,124,0.0,0.0,85,0.00,,---,0.00,VWS V14.01,2013-11-07 08:34:00,
2013-11-07 03:40:00,55.1,50.7,29.92,ESE,104,0.0,0.0,85,0.00,,---,0.00,VWS V14.01,2013-11-07 08:40:00,
2013-11-07 03:45:00,55.1,50.7,29.91,ESE,108,0.0,0.0,85,0.00,,---,0.00,VWS V14.01,2013-11-07 08:45:00,
2013-11-07 03:50:00,55.1,50.7,29.91,SE,132,0.0,0.0,85,0.00,,---,0.00,VWS V14.01,2013-11-07 08:50:00,
2013-11-07 03:55:00,55.2,50.8,29.91,ESE,122,0.0,0.0,85,0.00,,---,0.00,VWS V14.01,2013-11-07 08:55:00,
2013-11-07 04:00:00,55.3,50.9,29.90,ESE,120,0.0,0.0,85,0.00,,---,0.00,VWS V14.01,2013-11-07 09:00:00,
2013-11-07 04:05:00,55.3,50.9,29.90,SSE,152,0.0,0.0,85,0.00,,---,0.00,VWS V14.01,2013-11-07 09:05:00,
2013-11-07 04:10:00,55.1,50.7,29.90,North,352,0.0,0.0,85,0.00,,---,0.00,VWS V14.01,2013-11-07 09:10:00,
2013-11-07 04:15:00,54.9,50.5,29.90,SE,146,0.0,0.0,85,0.00,,---,0.00,VWS V14.01,2013-11-07 09:15:00,
2013-11-07 04:20:00,54.7,50.3,29.90,ESE,106,0.0,0.0,85,0.00,,---,0.00,VWS V14.01,2013-11-07 09:20:00,
2013-11-07 04:25:00,54.5,50.4,29.90,ESE,106,0.0,0.0,86,0.00,,---,0.00,VWS V14.01,2013-11-07 09:25:00,
2013-11-07 04:30:00,54.4,50.3,29.90,ESE,107,0.0,0.0,86,0.00,,---,0.00,VWS V14.01,2013-11-07 09:30:00,
2013-11-07 04:36:00,54.4,50.6,29.90,SE,128,0.0,0.0,87,0.00,,---,0.00,VWS V14.01,2013-11-07 09:36:00,
2013-11-07 04:41:00,54.5,50.7,29.90,SE,128,0.0,0.0,87,0.00,,---,0.00,VWS V14.01,2013-11-07 09:41:00,
2013-11-07 04:46:00,54.6,50.5,29.89,SE,134,0.0,0.0,86,0.00,,---,0.00,VWS V14.01,2013-11-07 09:46:00,
2013-11-07 04:51:00,54.6,50.5,29.89,ESE,114,0.0,0.0,86,0.00,,---,0.00,VWS V14.01,2013-11-07 09:51:00,
2013-11-07 04:56:00,54.5,50.4,29.89,ESE,114,0.0,0.0,86,0.00,,---,0.00,VWS V14.01,2013-11-07 09:56:00,
2013-11-07 05:01:00,54.4,50.6,29.89,ESE,114,0.0,0.0,87,0.00,,---,0.00,VWS V14.01,2013-11-07 10:01:00,
2013-11-07 05:06:00,54.2,50.4,29.89,ESE,114,0.0,0.0,87,0.00,,---,0.00,VWS V14.01,2013-11-07 10:06:00,
2013-11-07 05:11:00,53.9,50.1,29.89,SSE,149,0.0,0.0,87,0.00,,---,0.00,VWS V14.01,2013-11-07 10:11:00,
2013-11-07 05:16:00,53.8,50.3,29.89,SSE,150,0.0,0.0,88,0.00,,---,0.00,VWS V14.01,2013-11-07 10:16:00,
2013-11-07 05:21:00,53.8,50.3,29.89,SE,136,0.0,0.0,88,0.00,,---,0.00,VWS V14.01,2013-11-07 10:21:00,
2013-11-07 05:26:00,53.8,50.3,29.88,ESE,113,0.0,0.0,88,0.00,,---,0.00,VWS V14.01,2013-11-07 10:26:00,
2013-11-07 05:31:00,53.8,50.3,29.89,SE,126,0.0,0.0,88,0.00,,---,0.00,VWS V14.01,2013-11-07 10:31:00,
2013-11-07 05:36:00,53.8,50.3,29.88,ESE,102,0.0,0.0,88,0.00,,---,0.00,VWS V14.01,2013-11-07 10:36:00,
2013-11-07 05:41:00,53.8,50.3,29.88,ESE,121,0.0,0.0,88,0.00,,---,0.00,VWS V14.01,2013-11-07 10:41:00,
2013-11-07 05:47:00,53.8,50.3,29.88,SE,125,0.0,0.0,88,0.00,,---,0.00,VWS V14.01,2013-11-07 10:47:00,
2013-11-07 05:52:00,53.8,50.3,29.88,SE,131,0.0,0.0,88,0.00,,---,0.00,VWS V14.01,2013-11-07 10:52:00,
2013-11-07 05:57:00,53.9,50.4,29.88,SE,128,0.0,0.0,88,0.00,,---,0.00,VWS V14.01,2013-11-07 10:57:00,
2013-11-07 06:02:00,53.9,50.4,29.88,SE,128,0.0,0.0,88,0.00,,---,0.00,VWS V14.01,2013-11-07 11:02:00,
2013-11-07 06:07:00,53.9,50.4,29.88,SE,128,0.0,0.0,88,0.00,,---,0.00,VWS V14.01,2013-11-07 11:07:00,
2013-11-07 06:12:00,53.9,50.4,29.88,East,93,0.0,0.0,88,0.00,,---,0.00,VWS V14.01,2013-11-07 11:12:00,
2013-11-07 06:17:00,54.3,50.8,29.88,West,266,0.0,0.0,88,0.00,,---,0.00,VWS V14.01,2013-11-07 11:17:00,
2013-11-07 06:22:00,54.8,51.0,29.88,SE,146,0.0,0.0,87,0.00,,---,0.00,VWS V14.01,2013-11-07 11:22:00,
2013-11-07 06:27:00,55.1,51.0,29.88,East,86,0.0,0.0,86,0.00,,---,0.00,VWS V14.01,2013-11-07 11:27:00,
2013-11-07 06:32:00,55.4,51.3,29.89,SW,218,0.0,0.0,86,0.00,,---,0.00,VWS V14.01,2013-11-07 11:32:00,
2013-11-07 06:34:00,55.5,51.1,29.89,SW,218,0.0,0.0,85,0.00,,---,0.00,VWS V14.01,2013-11-07 11:34:00,
2013-11-07 06:39:00,55.6,51.2,29.89,ENE,74,0.0,0.0,85,0.00,,---,0.00,VWS V14.01,2013-11-07 11:39:00,
2013-11-07 06:44:00,55.8,51.4,29.89,North,352,0.0,0.0,85,0.00,,---,0.00,VWS V14.01,2013-11-07 11:44:00,
2013-11-07 06:49:00,55.9,51.5,29.89,North,352,0.0,0.0,85,0.00,,---,0.00,VWS V14.01,2013-11-07 11:49:00,
2013-11-07 06:54:00,55.9,51.5,29.89,North,353,0.0,0.0,85,0.00,,---,0.00,VWS V14.01,2013-11-07 11:54:00,
2013-11-07 06:59:00,55.9,51.5,29.89,North,353,0.0,0.0,85,0.00,,---,0.00,VWS V14.01,2013-11-07 11:59:00,
2013-11-07 07:04:00,55.9,51.1,29.89,North,352,0.0,0.0,84,0.00,,---,0.00,VWS V14.01,2013-11-07 12:04:00,
2013-11-07 07:09:00,55.9,51.1,29.89,North,352,0.0,0.0,84,0.00,,---,0.00,VWS V14.01,2013-11-07 12:09:00,
2013-11-07 07:14:00,55.9,51.1,29.89,NNE,12,0.0,0.0,84,0.00,,---,0.00,VWS V14.01,2013-11-07 12:14:00,
2013-11-07 07:20:00,56.0,51.2,29.89,East,79,0.0,0.0,84,0.00,,---,0.00,VWS V14.01,2013-11-07 12:20:00,
2013-11-07 07:25:00,55.9,51.1,29.89,East,79,0.0,0.0,84,0.00,,---,0.00,VWS V14.01,2013-11-07 12:25:00,
2013-11-07 07:30:00,55.9,51.1,29.89,East,79,0.0,0.0,84,0.00,,---,0.00,VWS V14.01,2013-11-07 12:30:00,
2013-11-07 07:35:00,55.8,51.4,29.88,ENE,78,0.0,0.0,85,0.00,,---,0.00,VWS V14.01,2013-11-07 12:35:00,
2013-11-07 07:40:00,55.7,51.3,29.87,ESE,105,0.0,0.0,85,0.00,,---,0.00,VWS V14.01,2013-11-07 12:40:00,
2013-11-07 07:45:00,55.8,51.4,29.87,ESE,105,0.0,0.0,85,0.00,,---,0.00,VWS V14.01,2013-11-07 12:45:00,
2013-11-07 07:50:00,55.8,51.4,29.88,ESE,104,0.0,0.0,85,0.00,,---,0.00,VWS V14.01,2013-11-07 12:50:00,
2013-11-07 07:56:00,55.7,51.3,29.89,ESE,104,0.0,0.0,85,0.00,,---,0.00,VWS V14.01,2013-11-07 12:56:00,
2013-11-07 08:01:00,55.7,51.3,29.88,ESE,105,0.0,0.0,85,0.00,,---,0.00,VWS V14.01,2013-11-07 13:01:00,
2013-11-07 08:06:00,55.7,51.3,29.89,ESE,104,0.0,0.0,85,0.00,,---,0.00,VWS V14.01,2013-11-07 13:06:00,
2013-11-07 08:11:00,55.8,51.4,29.88,ESE,103,0.0,0.0,85,0.00,,---,0.00,VWS V14.01,2013-11-07 13:11:00,
2013-11-07 08:16:00,56.0,51.6,29.88,East,98,0.0,0.0,85,0.00,,---,0.00,VWS V14.01,2013-11-07 13:16:00,
2013-11-07 08:21:00,56.2,51.8,29.89,NE,44,0.0,1.0,85,0.00,,---,0.00,VWS V14.01,2013-11-07 13:21:00,
2013-11-07 08:26:00,56.4,51.6,29.89,East,96,0.0,0.0,84,0.00,,---,0.00,VWS V14.01,2013-11-07 13:26:00,
2013-11-07 08:31:00,56.5,51.7,29.89,East,96,0.0,0.0,84,0.00,,---,0.00,VWS V14.01,2013-11-07 13:31:00,
2013-11-07 08:36:00,56.7,51.6,29.88,North,7,0.0,0.0,83,0.00,,---,0.00,VWS V14.01,2013-11-07 13:36:00,
2013-11-07 08:41:00,56.9,51.8,29.89,North,8,0.0,0.0,83,0.00,,---,0.00,VWS V14.01,2013-11-07 13:41:00,
2013-11-07 08:46:00,57.0,51.9,29.89,North,11,0.0,0.0,83,0.00,,---,0.00,VWS V14.01,2013-11-07 13:46:00,
2013-11-07 08:52:00,57.2,52.1,29.89,North,11,0.0,0.0,83,0.00,,---,0.00,VWS V14.01,2013-11-07 13:52:00,
2013-11-07 08:57:00,57.2,51.8,29.89,NW,307,0.0,0.0,82,0.00,,---,0.00,VWS V14.01,2013-11-07 13:57:00,
2013-11-07 09:02:00,57.2,51.8,29.89,NNE,25,0.0,0.0,82,0.00,,---,0.00,VWS V14.01,2013-11-07 14:02:00,
2013-11-07 09:07:00,57.3,51.9,29.89,NNE,30,0.0,0.0,82,0.00,,---,0.00,VWS V14.01,2013-11-07 14:07:00,
2013-11-07 09:12:00,57.2,52.1,29.89,NW,316,0.0,0.0,83,0.00,,---,0.00,VWS V14.01,2013-11-07 14:12:00,
2013-11-07 09:17:00,57.1,52.3,29.89,North,359,0.0,0.0,84,0.00,,---,0.00,VWS V14.01,2013-11-07 14:17:00,
2013-11-07 09:22:00,57.0,52.5,29.89,North,1,0.0,0.0,85,0.00,,---,0.00,VWS V14.01,2013-11-07 14:22:00,
2013-11-07 09:27:00,56.7,52.9,29.89,WNW,291,0.0,0.0,87,0.00,,---,0.00,VWS V14.01,2013-11-07 14:27:00,
2013-11-07 09:32:00,56.3,52.5,29.89,NW,304,0.0,0.0,87,0.00,,---,0.00,VWS V14.01,2013-11-07 14:32:00,
2013-11-07 09:37:00,55.9,52.4,29.90,SW,236,0.0,0.0,88,0.01,,---,0.01,VWS V14.01,2013-11-07 14:37:00,
2013-11-07 09:42:00,55.5,52.6,29.89,SW,235,0.0,1.0,90,0.02,,---,0.02,VWS V14.01,2013-11-07 14:42:00,
2013-11-07 09:47:00,55.0,52.4,29.89,WNW,291,0.0,0.0,91,0.03,,---,0.03,VWS V14.01,2013-11-07 14:47:00,
2013-11-07 09:52:00,54.5,51.9,29.90,WNW,293,0.0,1.0,91,0.03,,---,0.03,VWS V14.01,2013-11-07 14:52:00,
2013-11-07 09:57:00,54.0,51.7,29.90,West,270,0.0,0.0,92,0.04,,---,0.04,VWS V14.01,2013-11-07 14:57:00,
2013-11-07 10:02:00,53.7,51.4,29.89,WSW,252,0.0,0.0,92,0.05,,---,0.05,VWS V14.01,2013-11-07 15:02:00,
2013-11-07 10:07:00,53.4,51.4,29.90,NE,45,0.0,0.0,93,0.05,,---,0.05,VWS V14.01,2013-11-07 15:07:00,
2013-11-07 10:13:00,53.1,51.1,29.91,WNW,289,0.0,0.0,93,0.06,,---,0.06,VWS V14.01,2013-11-07 15:13:00,
2013-11-07 10:18:00,52.8,51.1,29.90,South,191,0.0,0.0,94,0.06,,---,0.06,VWS V14.01,2013-11-07 15:18:00,
2013-11-07 10:23:00,52.6,50.9,29.90,WNW,284,0.0,0.0,94,0.06,,---,0.06,VWS V14.01,2013-11-07 15:23:00,
2013-11-07 10:28:00,52.3,50.6,29.91,NW,308,0.0,0.0,94,0.07,,---,0.07,VWS V14.01,2013-11-07 15:28:00,
2013-11-07 10:33:00,52.0,50.3,29.91,WNW,287,0.0,0.0,94,0.08,,---,0.08,VWS V14.01,2013-11-07 15:33:00,
2013-11-07 10:38:00,51.7,50.0,29.92,West,281,0.0,0.0,94,0.08,,---,0.09,VWS V14.01,2013-11-07 15:38:00,
2013-11-07 10:43:00,51.6,49.9,29.92,WNW,282,0.0,0.0,94,0.07,,---,0.09,VWS V14.01,2013-11-07 15:43:00,
2013-11-07 10:48:00,51.3,49.6,29.92,WNW,290,0.0,0.0,94,0.07,,---,0.10,VWS V14.01,2013-11-07 15:48:00,
2013-11-07 10:53:00,51.2,49.5,29.92,WNW,303,0.0,0.0,94,0.07,,---,0.10,VWS V14.01,2013-11-07 15:53:00,
2013-11-07 10:59:00,51.1,49.4,29.93,WNW,284,0.0,0.0,94,0.06,,---,0.10,VWS V14.01,2013-11-07 15:59:00,
2013-11-07 11:04:00,50.9,49.2,29.93,NW,319,0.0,0.0,94,0.07,,---,0.12,VWS V14.01,2013-11-07 16:04:00,
2013-11-07 11:09:00,50.6,48.9,29.93,WNW,302,0.0,0.0,94,0.08,,---,0.13,VWS V14.01,2013-11-07 16:09:00,
2013-11-07 11:14:00,50.5,49.1,29.93,NNW,338,0.0,0.0,95,0.08,,---,0.14,VWS V14.01,2013-11-07 16:14:00,
2013-11-07 11:19:00,50.6,49.2,29.93,NNW,330,0.0,0.0,95,0.09,,---,0.15,VWS V14.01,2013-11-07 16:19:00,
2013-11-07 11:24:00,50.5,49.1,29.93,NNW,330,0.0,0.0,95,0.08,,---,0.15,VWS V14.01,2013-11-07 16:24:00,
2013-11-07 11:29:00,50.5,49.1,29.92,NNW,328,0.0,0.0,95,0.09,,---,0.16,VWS V14.01,2013-11-07 16:29:00,
2013-11-07 11:34:00,50.5,49.1,29.92,NNW,328,0.0,0.0,95,0.09,,---,0.17,VWS V14.01,2013-11-07 16:34:00,
2013-11-07 11:39:00,50.6,49.2,29.92,NW,322,0.0,0.0,95,0.08,,---,0.17,VWS V14.01,2013-11-07 16:39:00,
2013-11-07 11:44:00,50.6,49.2,29.92,NW,324,0.0,0.0,95,0.08,,---,0.17,VWS V14.01,2013-11-07 16:44:00,
2013-11-07 11:50:00,50.8,49.7,29.92,NNW,328,0.0,0.0,96,0.08,,---,0.18,VWS V14.01,2013-11-07 16:50:00,
2013-11-07 11:55:00,51.0,49.9,29.91,NW,308,0.0,0.0,96,0.08,,---,0.18,VWS V14.01,2013-11-07 16:55:00,
2013-11-07 12:00:00,50.9,49.5,29.91,WSW,245,0.0,0.0,95,0.07,,---,0.18,VWS V14.01,2013-11-07 17:00:00,
2013-11-07 12:05:00,50.8,49.4,29.91,NNW,335,0.0,0.0,95,0.06,,---,0.18,VWS V14.01,2013-11-07 17:05:00,
2013-11-07 12:10:00,50.6,49.2,29.91,NNW,346,0.0,0.0,95,0.05,,---,0.18,VWS V14.01,2013-11-07 17:10:00,
2013-11-07 12:15:00,50.5,49.1,29.91,NNW,340,0.0,0.0,95,0.04,,---,0.18,VWS V14.01,2013-11-07 17:15:00,
2013-11-07 12:20:00,50.5,49.1,29.91,North,350,0.0,0.0,95,0.03,,---,0.18,VWS V14.01,2013-11-07 17:20:00,
2013-11-07 12:25:00,50.5,49.1,29.91,West,273,1.0,1.0,95,0.03,,---,0.18,VWS V14.01,2013-11-07 17:25:00,
2013-11-07 12:30:00,50.5,49.1,29.91,NNW,335,0.0,0.0,95,0.02,,---,0.18,VWS V14.01,2013-11-07 17:30:00,
2013-11-07 12:35:00,50.7,49.3,29.91,NW,305,0.0,0.0,95,0.01,,---,0.18,VWS V14.01,2013-11-07 17:35:00,
2013-11-07 12:41:00,50.9,49.5,29.91,ENE,72,0.0,0.0,95,0.01,,---,0.18,VWS V14.01,2013-11-07 17:41:00,
2013-11-07 12:46:00,51.0,49.3,29.91,WNW,284,0.0,1.0,94,0.01,,---,0.18,VWS V14.01,2013-11-07 17:46:00,
2013-11-07 12:51:00,50.9,49.0,29.92,NNE,15,0.0,0.0,93,0.00,,---,0.18,VWS V14.01,2013-11-07 17:51:00,
2013-11-07 12:56:00,50.9,48.4,29.91,NW,319,0.0,0.0,91,0.00,,---,0.18,VWS V14.01,2013-11-07 17:56:00,
2013-11-07 12:58:00,50.9,48.1,29.91,NW,322,0.0,4.0,90,0.00,,---,0.18,VWS V14.01,2013-11-07 17:58:00,
2013-11-07 13:03:00,50.8,47.7,29.92,NNW,338,0.0,0.0,89,0.00,,---,0.18,VWS V14.01,2013-11-07 18:03:00,
2013-11-07 13:09:00,50.8,47.7,29.92,West,259,0.0,0.0,89,0.00,,---,0.18,VWS V14.01,2013-11-07 18:09:00,
2013-11-07 13:14:00,50.8,47.1,29.93,WNW,302,1.0,1.0,87,0.00,,---,0.18,VWS V14.01,2013-11-07 18:14:00,
2013-11-07 13:19:00,50.4,45.8,29.92,NW,319,0.0,0.0,84,0.00,,---,0.18,VWS V14.01,2013-11-07 18:19:00,
2013-11-07 13:24:00,50.1,45.5,29.93,WNW,299,0.0,3.0,84,0.00,,---,0.18,VWS V14.01,2013-11-07 18:24:00,
2013-11-07 13:29:00,49.9,45.3,29.94,NW,316,0.0,0.0,84,0.00,,---,0.18,VWS V14.01,2013-11-07 18:29:00,
2013-11-07 13:34:00,49.7,45.1,29.93,NW,309,0.0,0.0,84,0.00,,---,0.18,VWS V14.01,2013-11-07 18:34:00,
2013-11-07 13:39:00,50.0,46.3,29.92,WNW,300,0.0,0.0,87,0.00,,---,0.18,VWS V14.01,2013-11-07 18:39:00,
2013-11-07 13:44:00,50.3,45.3,29.92,NNW,345,0.0,0.0,83,0.00,,---,0.18,VWS V14.01,2013-11-07 18:44:00,
2013-11-07 13:49:00,50.2,44.9,29.92,NW,320,0.0,0.0,82,0.00,,---,0.18,VWS V14.01,2013-11-07 18:49:00,
2013-11-07 13:54:00,50.3,44.7,29.92,NW,326,0.0,1.0,81,0.00,,---,0.18,VWS V14.01,2013-11-07 18:54:00,
2013-11-07 13:59:00,50.3,45.0,29.92,West,276,0.0,0.0,82,0.00,,---,0.18,VWS V14.01,2013-11-07 18:59:00,
2013-11-07 14:04:00,50.1,43.8,29.92,NNE,17,0.0,0.0,79,0.00,,---,0.18,VWS V14.01,2013-11-07 19:04:00,
2013-11-07 14:10:00,49.9,44.0,29.92,NW,326,0.0,0.0,80,0.00,,---,0.18,VWS V14.01,2013-11-07 19:10:00,
2013-11-07 14:15:00,49.7,42.8,29.92,North,352,0.0,0.0,77,0.00,,---,0.18,VWS V14.01,2013-11-07 19:15:00,
2013-11-07 14:20:00,49.5,41.6,29.93,NNW,333,0.0,3.0,74,0.00,,---,0.18,VWS V14.01,2013-11-07 19:20:00,
2013-11-07 14:25:00,49.0,41.1,29.93,WNW,294,0.0,0.0,74,0.00,,---,0.18,VWS V14.01,2013-11-07 19:25:00,
2013-11-07 14:30:00,48.6,40.7,29.94,NE,47,0.0,1.0,74,0.00,,---,0.18,VWS V14.01,2013-11-07 19:30:00,
2013-11-07 14:35:00,48.5,41.0,29.94,ENE,57,0.0,0.0,75,0.00,,---,0.18,VWS V14.01,2013-11-07 19:35:00,
2013-11-07 14:40:00,48.8,40.5,29.94,NNW,345,0.0,0.0,73,0.00,,---,0.18,VWS V14.01,2013-11-07 19:40:00,
2013-11-07 14:46:00,49.4,40.8,29.94,NE,34,0.0,1.0,72,0.00,,---,0.18,VWS V14.01,2013-11-07 19:46:00,
2013-11-07 14:51:00,49.7,40.7,29.94,SSW,201,0.0,0.0,71,0.00,,---,0.18,VWS V14.01,2013-11-07 19:51:00,
2013-11-07 14:56:00,49.7,40.0,29.94,West,264,1.0,1.0,69,0.00,,---,0.18,VWS V14.01,2013-11-07 19:56:00,
2013-11-07 15:01:00,49.6,39.9,29.94,NNW,338,2.0,2.0,69,0.00,,---,0.18,VWS V14.01,2013-11-07 20:01:00,
2013-11-07 15:06:00,49.4,40.0,29.93,WNW,298,2.0,2.0,70,0.00,,---,0.18,VWS V14.01,2013-11-07 20:06:00,
2013-11-07 15:11:00,49.1,39.0,29.93,NW,316,0.0,1.0,68,0.00,,---,0.18,VWS V14.01,2013-11-07 20:11:00,
2013-11-07 15:16:00,48.8,38.7,29.92,NNW,340,2.0,3.0,68,0.00,,---,0.18,VWS V14.01,2013-11-07 20:16:00,
2013-11-07 15:21:00,48.6,38.5,29.93,NW,304,0.0,6.0,68,0.00,,---,0.18,VWS V14.01,2013-11-07 20:21:00,
2013-11-07 15:27:00,48.5,38.8,29.93,ENE,67,1.0,1.0,69,0.00,,---,0.18,VWS V14.01,2013-11-07 20:27:00,
2013-11-07 15:32:00,48.4,39.4,29.93,NW,304,0.0,2.0,71,0.00,,---,0.18,VWS V14.01,2013-11-07 20:32:00,
2013-11-07 15:37:00,48.5,38.8,29.93,NE,56,0.0,1.0,69,0.00,,---,0.18,VWS V14.01,2013-11-07 20:37:00,
2013-11-07 15:42:00,48.5,38.8,29.93,NW,304,0.0,1.0,69,0.00,,---,0.18,VWS V14.01,2013-11-07 20:42:00,
2013-11-07 15:47:00,48.4,38.7,29.94,NW,315,0.0,0.0,69,0.00,,---,0.18,VWS V14.01,2013-11-07 20:47:00,
2013-11-07 15:52:00,48.3,39.0,29.94,WNW,288,0.0,1.0,70,0.00,,---,0.18,VWS V14.01,2013-11-07 20:52:00,
2013-11-07 15:57:00,48.2,38.5,29.94,West,267,0.0,0.0,69,0.00,,---,0.18,VWS V14.01,2013-11-07 20:57:00,
2013-11-07 16:02:00,48.3,38.6,29.94,WNW,301,0.0,0.0,69,0.00,,---,0.18,VWS V14.01,2013-11-07 21:02:00,
2013-11-07 16:07:00,48.3,39.0,29.94,NW,311,0.0,1.0,70,0.00,,---,0.18,VWS V14.01,2013-11-07 21:07:00,
2013-11-07 16:12:00,48.3,38.2,29.94,NW,312,0.0,0.0,68,0.00,,---,0.18,VWS V14.01,2013-11-07 21:12:00,
2013-11-07 16:18:00,48.3,38.2,29.94,WNW,289,0.0,0.0,68,0.00,,---,0.18,VWS V14.01,2013-11-07 21:18:00,
2013-11-07 16:23:00,48.2,38.5,29.94,SW,234,1.0,1.0,69,0.00,,---,0.18,VWS V14.01,2013-11-07 21:23:00,
2013-11-07 16:28:00,48.0,37.6,29.94,NNE,24,0.0,0.0,67,0.00,,---,0.18,VWS V14.01,2013-11-07 21:28:00,
2013-11-07 16:33:00,47.9,37.9,29.94,NW,311,1.0,2.0,68,0.00,,---,0.18,VWS V14.01,2013-11-07 21:33:00,
2013-11-07 16:38:00,47.8,37.8,29.94,NNW,345,1.0,1.0,68,0.00,,---,0.18,VWS V14.01,2013-11-07 21:38:00,
2013-11-07 16:43:00,47.5,37.8,29.95,NNW,333,0.0,0.0,69,0.00,,---,0.18,VWS V14.01,2013-11-07 21:43:00,
2013-11-07 16:48:00,47.3,37.3,29.95,NW,312,0.0,0.0,68,0.00,,---,0.18,VWS V14.01,2013-11-07 21:48:00,
2013-11-07 16:53:00,47.2,37.6,29.95,NW,305,0.0,0.0,69,0.00,,---,0.18,VWS V14.01,2013-11-07 21:53:00,
2013-11-07 16:58:00,47.1,37.5,29.94,WNW,291,0.0,0.0,69,0.00,,---,0.18,VWS V14.01,2013-11-07 21:58:00,
2013-11-07 17:03:00,46.9,37.3,29.95,North,11,0.0,0.0,69,0.00,,---,0.18,VWS V14.01,2013-11-07 22:03:00,
2013-11-07 17:08:00,46.8,37.5,29.95,NW,304,0.0,0.0,70,0.00,,---,0.18,VWS V14.01,2013-11-07 22:08:00,
2013-11-07 17:13:00,46.8,37.9,29.96,NNW,342,0.0,1.0,71,0.00,,---,0.18,VWS V14.01,2013-11-07 22:13:00,
2013-11-07 17:18:00,46.8,37.9,29.96,SSW,204,0.0,6.0,71,0.00,,---,0.18,VWS V14.01,2013-11-07 22:18:00,
2013-11-07 17:23:00,46.7,38.2,29.96,NNW,335,0.0,0.0,72,0.00,,---,0.18,VWS V14.01,2013-11-07 22:23:00,
2013-11-07 17:29:00,46.6,38.1,29.96,NW,311,0.0,0.0,72,0.00,,---,0.18,VWS V14.01,2013-11-07 22:29:00,
2013-11-07 17:34:00,46.5,38.3,29.97,NW,323,0.0,0.0,73,0.00,,---,0.18,VWS V14.01,2013-11-07 22:34:00,
2013-11-07 17:39:00,46.5,38.0,29.97,ENE,68,0.0,1.0,72,0.00,,---,0.18,VWS V14.01,2013-11-07 22:39:00,
2013-11-07 17:44:00,46.5,38.0,29.97,SW,235,0.0,4.0,72,0.00,,---,0.18,VWS V14.01,2013-11-07 22:44:00,
2013-11-07 17:49:00,46.4,36.8,29.98,SSW,197,0.0,1.0,69,0.00,,---,0.18,VWS V14.01,2013-11-07 22:49:00,
2013-11-07 17:54:00,46.2,37.0,29.98,West,266,0.0,1.0,70,0.00,,---,0.18,VWS V14.01,2013-11-07 22:54:00,
2013-11-07 17:59:00,45.9,36.3,29.99,North,8,0.0,1.0,69,0.00,,---,0.18,VWS V14.01,2013-11-07 22:59:00,
2013-11-07 18:04:00,45.6,35.7,29.99,WNW,298,0.0,0.0,68,0.00,,---,0.18,VWS V14.01,2013-11-07 23:04:00,
2013-11-07 18:09:00,45.3,35.0,30.00,West,277,0.0,0.0,67,0.00,,---,0.18,VWS V14.01,2013-11-07 23:09:00,
2013-11-07 18:14:00,45.0,35.5,30.00,West,280,3.0,5.0,69,0.00,,---,0.18,VWS V14.01,2013-11-07 23:14:00,
2013-11-07 18:19:00,44.8,35.3,30.00,NE,41,0.0,0.0,69,0.00,,---,0.18,VWS V14.01,2013-11-07 23:19:00,
2013-11-07 18:24:00,44.7,35.2,30.01,NNW,330,0.0,0.0,69,0.00,,---,0.18,VWS V14.01,2013-11-07 23:24:00,
2013-11-07 18:29:00,44.7,35.2,30.01,NNW,337,0.0,0.0,69,0.00,,---,0.18,VWS V14.01,2013-11-07 23:29:00,
2013-11-07 18:34:00,44.6,35.4,30.00,NNW,333,0.0,0.0,70,0.00,,---,0.18,VWS V14.01,2013-11-07 23:34:00,
2013-11-07 18:40:00,44.3,34.4,30.01,NW,305,0.0,1.0,68,0.00,,---,0.18,VWS V14.01,2013-11-07 23:40:00,
2013-11-07 18:45:00,44.4,35.2,30.02,WNW,285,0.0,1.0,70,0.00,,---,0.18,VWS V14.01,2013-11-07 23:45:00,
2013-11-07 18:50:00,44.3,34.8,30.01,WSW,238,0.0,1.0,69,0.00,,---,0.18,VWS V14.01,2013-11-07 23:50:00,
2013-11-07 18:55:00,44.1,35.0,30.01,NW,323,0.0,0.0,70,0.00,,---,0.18,VWS V14.01,2013-11-07 23:55:00,
2013-11-07 19:00:00,44.0,34.9,30.02,NW,311,0.0,0.0,70,0.00,,---,0.18,VWS V14.01,2013-11-08 00:00:00,
2013-11-07 19:05:00,44.0,34.9,30.02,NW,315,0.0,0.0,70,0.00,,---,0.18,VWS V14.01,2013-11-08 00:05:00,
2013-11-07 19:10:00,44.0,34.5,30.02,NW,318,0.0,0.0,69,0.00,,---,0.18,VWS V14.01,2013-11-08 00:10:00,
2013-11-07 19:15:00,44.1,34.2,30.02,NW,310,0.0,1.0,68,0.00,,---,0.18,VWS V14.01,2013-11-08 00:15:00,
2013-11-07 19:20:00,44.2,34.3,30.02,NNW,330,0.0,0.0,68,0.00,,---,0.18,VWS V14.01,2013-11-08 00:20:00,
2013-11-07 19:26:00,44.1,34.2,30.02,North,356,1.0,1.0,68,0.00,,---,0.18,VWS V14.01,2013-11-08 00:26:00,
2013-11-07 19:31:00,44.2,34.3,30.02,NW,325,0.0,0.0,68,0.00,,---,0.18,VWS V14.01,2013-11-08 00:31:00,
2013-11-07 19:36:00,44.1,33.9,30.02,SW,226,0.0,0.0,67,0.00,,---,0.18,VWS V14.01,2013-11-08 00:36:00,
2013-11-07 19:41:00,44.1,33.9,30.02,NNW,343,1.0,1.0,67,0.00,,---,0.18,VWS V14.01,2013-11-08 00:41:00,
2013-11-07 19:46:00,44.2,34.0,30.02,WNW,300,0.0,0.0,67,0.00,,---,0.18,VWS V14.01,2013-11-08 00:46:00,
2013-11-07 19:51:00,44.2,33.2,30.02,NNE,20,0.0,4.0,65,0.00,,---,0.18,VWS V14.01,2013-11-08 00:51:00,
2013-11-07 19:56:00,44.3,33.7,30.02,NNW,332,0.0,1.0,66,0.00,,---,0.18,VWS V14.01,2013-11-08 00:56:00,
2013-11-07 20:01:00,44.3,34.0,30.02,NNE,13,0.0,3.0,67,0.00,,---,0.18,VWS V14.01,2013-11-08 01:01:00,
2013-11-07 20:06:00,44.2,33.6,30.02,SW,233,0.0,4.0,66,0.00,,---,0.18,VWS V14.01,2013-11-08 01:06:00,
2013-11-07 20:12:00,44.3,33.3,30.02,North,356,3.0,3.0,65,0.00,,---,0.18,VWS V14.01,2013-11-08 01:12:00,
2013-11-07 20:17:00,44.3,32.5,30.02,West,266,0.0,1.0,63,0.00,,---,0.18,VWS V14.01,2013-11-08 01:17:00,
2013-11-07 20:22:00,44.3,33.7,30.02,South,170,2.0,4.0,66,0.00,,---,0.18,VWS V14.01,2013-11-08 01:22:00,
2013-11-07 20:27:00,44.1,32.3,30.02,North,5,0.0,0.0,63,0.00,,---,0.18,VWS V14.01,2013-11-08 01:27:00,
2013-11-07 20:32:00,43.9,31.7,30.02,NE,44,1.0,2.0,62,0.00,,---,0.18,VWS V14.01,2013-11-08 01:32:00,
2013-11-07 20:37:00,43.7,32.0,30.02,North,8,0.0,0.0,63,0.00,,---,0.18,VWS V14.01,2013-11-08 01:37:00,
2013-11-07 20:42:00,43.5,32.2,30.03,WSW,245,0.0,0.0,64,0.00,,---,0.18,VWS V14.01,2013-11-08 01:42:00,
2013-11-07 20:47:00,43.5,32.2,30.03,NNE,26,0.0,0.0,64,0.00,,---,0.18,VWS V14.01,2013-11-08 01:47:00,
2013-11-07 20:52:00,43.3,32.3,30.03,NNW,343,0.0,1.0,65,0.00,,---,0.18,VWS V14.01,2013-11-08 01:52:00,
2013-11-07 20:57:00,43.3,31.6,30.03,West,277,0.0,2.0,63,0.00,,---,0.18,VWS V14.01,2013-11-08 01:57:00,
2013-11-07 21:02:00,43.0,31.3,30.04,WNW,298,0.0,5.0,63,0.00,,---,0.18,VWS V14.01,2013-11-08 02:02:00,
2013-11-07 21:07:00,42.7,30.2,30.04,SSW,211,0.0,1.0,61,0.00,,---,0.18,VWS V14.01,2013-11-08 02:07:00,
2013-11-07 21:12:00,42.2,29.3,30.05,East,80,0.0,2.0,60,0.00,,---,0.18,VWS V14.01,2013-11-08 02:12:00,
2013-11-07 21:17:00,41.7,30.0,30.05,WNW,297,0.0,0.0,63,0.00,,---,0.18,VWS V14.01,2013-11-08 02:17:00,
2013-11-07 21:23:00,41.3,26.8,30.05,NNE,13,0.0,2.0,56,0.00,,---,0.18,VWS V14.01,2013-11-08 02:23:00,
2013-11-07 21:28:00,41.0,27.8,30.05,WNW,299,2.0,2.0,59,0.00,,---,0.18,VWS V14.01,2013-11-08 02:28:00,
2013-11-07 21:33:00,40.6,26.6,30.06,West,264,0.0,0.0,57,0.00,,---,0.18,VWS V14.01,2013-11-08 02:33:00,
2013-11-07 21:38:00,40.3,27.1,30.06,ESE,116,2.0,3.0,59,0.00,,---,0.18,VWS V14.01,2013-11-08 02:38:00,
2013-11-07 21:43:00,40.0,26.8,30.06,SSE,149,0.0,1.0,59,0.00,,---,0.18,VWS V14.01,2013-11-08 02:43:00,
2013-11-07 21:48:00,39.8,26.2,30.06,South,186,0.0,3.0,58,0.00,,---,0.18,VWS V14.01,2013-11-08 02:48:00,
2013-11-07 21:53:00,39.6,26.9,30.06,NE,46,1.0,3.0,60,0.00,,---,0.18,VWS V14.01,2013-11-08 02:53:00,
2013-11-07 21:58:00,39.3,27.0,30.06,SSE,147,0.0,1.0,61,0.00,,---,0.18,VWS V14.01,2013-11-08 02:58:00,
2013-11-07 22:03:00,39.2,26.1,30.06,WNW,302,0.0,0.0,59,0.00,,---,0.18,VWS V14.01,2013-11-08 03:03:00,
2013-11-07 22:08:00,39.0,25.9,30.07,NW,318,0.0,0.0,59,0.00,,---,0.18,VWS V14.01,2013-11-08 03:08:00,
2013-11-07 22:13:00,39.0,25.5,30.07,West,269,0.0,0.0,58,0.00,,---,0.18,VWS V14.01,2013-11-08 03:13:00,
2013-11-07 22:18:00,38.9,25.4,30.06,NW,316,0.0,2.0,58,0.00,,---,0.18,VWS V14.01,2013-11-08 03:18:00,
2013-11-07 22:23:00,38.9,26.6,30.07,WNW,296,0.0,0.0,61,0.00,,---,0.18,VWS V14.01,2013-11-08 03:23:00,
2013-11-07 22:28:00,38.7,26.0,30.06,NW,308,0.0,0.0,60,0.00,,---,0.18,VWS V14.01,2013-11-08 03:28:00,
2013-11-07 22:33:00,38.6,25.1,30.06,WNW,287,0.0,1.0,58,0.00,,---,0.18,VWS V14.01,2013-11-08 03:33:00,
2013-11-07 22:38:00,38.7,25.6,30.06,WNW,294,0.0,0.0,59,0.00,,---,0.18,VWS V14.01,2013-11-08 03:38:00,
2013-11-07 22:43:00,38.6,25.9,30.06,West,263,0.0,0.0,60,0.00,,---,0.18,VWS V14.01,2013-11-08 03:43:00,
2013-11-07 22:48:00,38.4,25.3,30.06,SW,221,0.0,0.0,59,0.00,,---,0.18,VWS V14.01,2013-11-08 03:48:00,
2013-11-07 22:53:00,38.4,26.1,30.06,NW,304,0.0,0.0,61,0.00,,---,0.18,VWS V14.01,2013-11-08 03:53:00,
2013-11-07 22:58:00,38.4,25.7,30.06,NW,308,0.0,0.0,60,0.00,,---,0.18,VWS V14.01,2013-11-08 03:58:00,
2013-11-07 23:03:00,38.4,26.1,30.06,NW,308,0.0,0.0,61,0.00,,---,0.18,VWS V14.01,2013-11-08 04:03:00,
2013-11-07 23:08:00,38.3,25.2,30.06,West,278,0.0,0.0,59,0.00,,---,0.18,VWS V14.01,2013-11-08 04:08:00,
2013-11-07 23:13:00,38.1,25.5,30.06,NNW,346,0.0,0.0,60,0.00,,---,0.18,VWS V14.01,2013-11-08 04:13:00,
2013-11-07 23:19:00,37.9,25.3,30.06,West,280,0.0,0.0,60,0.00,,---,0.18,VWS V14.01,2013-11-08 04:19:00,
2013-11-07 23:24:00,37.6,25.4,30.06,West,279,0.0,0.0,61,0.00,,---,0.18,VWS V14.01,2013-11-08 04:24:00,
2013-11-07 23:29:00,37.4,25.2,30.06,West,279,0.0,0.0,61,0.00,,---,0.18,VWS V14.01,2013-11-08 04:29:00,
2013-11-07 23:34:00,37.2,25.0,30.06,West,277,0.0,0.0,61,0.00,,---,0.18,VWS V14.01,2013-11-08 04:34:00,
2013-11-07 23:39:00,37.2,25.4,30.06,West,277,0.0,0.0,62,0.00,,---,0.18,VWS V14.01,2013-11-08 04:39:00,
2013-11-07 23:44:00,37.0,26.0,30.06,West,281,0.0,1.0,64,0.00,,---,0.18,VWS V14.01,2013-11-08 04:44:00,
2013-11-07 23:49:00,36.8,25.4,30.06,WNW,291,0.0,0.0,63,0.00,,---,0.18,VWS V14.01,2013-11-08 04:49:00,
2013-11-07 23:54:00,36.7,25.7,30.06,WNW,291,0.0,0.0,64,0.00,,---,0.18,VWS V14.01,2013-11-08 04:54:00,
2013-11-07 23:59:00,36.6,25.6,30.06,East,98,0.0,0.0,64,0.00,,---,0.18,VWS V14.01,2013-11-08 04:59:00,